Temperature
20 20 20 21 26 29 29 29 29 28 28 26 26 26 27 27 27 25 22 22 21 20 19 20 20 19 19 20 20 20 20 20 20 20 19 19 19 19 19 19 18 18 18 18 18 18 18 18 18
19 20 21 25 28 29 29 29 28 28 27 25 25 25 26 25 23 21 21 21 20 20 19 19 20 19 19 19 20 20 20 20 20 20 19 19 19 19 19 19 18 18 18 18 18 18 18 18 18
19 20 24 28 29 30 29 29 28 27 25 25 25 25 25 24 22 21 20 20 20 20 19 19 20 19 19 19 19 19 20 20 20 20 19 19 19 19 19 19 18 18 18 18 18 18 18 18 18
20 23 26 29 29 29 29 29 28 27 25 25 25 25 24 21 21 20 20 20 20 20 19 19 19 19 19 19 19 19 19 19 19 19 19 19 19 19 19 18 18 18 18 18 18 18 18 18 18
22 26 29 29 29 29 29 28 27 27 27 25 25 25 23 20 20 19 19 20 20 20 20 19 19 19 19 19 19 19 19 19 19 19 19 19 19 18 18 18 18 18 18 18 18 18 18 18 18
25 28 29 29 29 29 29 27 26 27 26 25 25 25 22 19 19 19 20 20 20 20 20 18 19 19 19 19 19 19 19 19 19 19 19 19 19 18 18 18 18 18 18 18 18 18 18 18 18
26 28 29 29 28 29 28 27 27 27 27 25 24 25 22 20 19 19 20 20 20 20 20 18 18 18 18 18 18 19 19 19 19 19 19 19 18 18 18 18 18 18 18 18 18 18 18 18 18
25 29 29 29 28 29 28 27 26 26 26 24 23 25 23 19 19 19 19 20 20 20 20 19 19 18 18 18 18 18 19 19 19 18 18 18 18 18 18 18 18 18 18 18 18 18 18 18 18
24 28 29 29 28 29 28 27 25 24 24 23 23 23 22 19 19 19 19 19 19 19 19 19 19 18 18 18 18 18 18 18 18 18 18 18 17 17 17 17 18 18 18 18 17 17 17 18 18
26 28 29 29 28 28 27 27 26 25 25 24 22 21 20 19 18 19 19 19 19 19 19 18 18 18 18 18 18 18 17 18 17 17 17 17 17 17 17 17 18 18 18 17 17 18 17 17 17
27 28 29 28 27 27 27 26 25 26 26 25 23 21 19 18 18 19 19 19 19 19 18 18 18 18 18 18 18 18 17 17 17 17 17 17 17 17 17 17 17 17 17 17 17 17 17 17 17
28 28 27 28 27 26 27 26 26 25 24 21 21 20 19 19 19 19 19 19 19 18 18 18 18 18 18 18 17 18 17 17 17 17 17 17 17 17 17 17 17 17 17 17 17 17 17 17 17
28 28 27 27 26 26 26 26 25 24 22 21 21 20 20 19 19 19 19 19 18 18 18 18 18 18 18 18 18 17 17 17 17 17 17 17 17 16 16 16 17 17 17 17 17 17 17 17 16
28 28 27 27 26 25 26 26 25 24 22 21 21 20 20 19 19 19 18 18 18 18 17 17 18 18 18 18 17 17 17 17 16 16 16 17 16 16 16 16 16 16 16 16 16 16 16 16 16
27 28 29 28 27 26 26 26 25 23 21 21 20 20 19 19 18 18 18 18 18 17 17 18 18 18 17 17 17 17 17 16 16 16 16 16 16 16 15 15 15 15 15 16 16 16 16 16 16
29 29 29 28 27 26 26 26 25 22 21 21 20 19 18 18 18 18 18 18 18 17 17 17 17 17 17 17 17 16 16 16 16 16 16 16 16 15 15 15 15 15 15 15 15 16 16 16 16
30 29 29 28 27 27 26 26 25 22 22 21 20 19 18 17 17 17 17 17 18 17 17 17 17 17 17 17 17 16 16 16 16 15 15 15 15 15 15 15 15 15 15 15 15 15 16 16 16
29 29 29 28 28 27 26 26 25 22 22 21 20 19 18 18 17 17 17 17 17 17 17 17 17 17 17 17 17 16 16 16 15 15 15 15 15 15 14 14 14 14 14 14 14 14 14 15 15
29 29 29 28 27 27 27 26 25 23 22 21 20 19 18 18 17 17 17 17 17 17 17 17 17 17 17 17 17 16 16 16 15 15 15 15 14 14 14 14 14 14 14 14 14 14 14 15 14
29 29 29 28 27 26 26 26 25 23 22 22 21 20 19 18 17 17 17 17 17 17 17 17 17 17 17 17 17 16 16 15 15 15 15 15 14 14 14 14 14 13 13 13 13 13 14 14 14
29 29 29 28 27 26 26 26 25 24 22 21 21 20 19 19 18 17 17 17 17 17 17 17 17 17 17 17 17 16 16 16 15 15 15 15 14 14 14 14 13 13 13 13 13 13 13 14 14
29 29 28 28 28 28 26 27 26 25 24 23 22 20 20 19 18 18 17 17 17 17 17 17 17 17 17 17 17 16 16 16 16 15 15 15 14 14 14 14 13 13 13 13 13 13 13 13 15
29 28 28 28 28 28 27 27 27 26 25 24 23 21 20 19 19 18 18 18 18 18 18 17 18 18 18 17 17 17 16 16 16 16 15 15 14 14 14 14 13 13 13 13 13 13 13 13 14
27 27 27 27 28 27 27 27 27 27 26 26 24 22 21 20 19 19 18 18 18 18 17 17 18 18 18 17 17 17 16 16 16 16 16 15 15 14 14 14 14 13 13 13 13 12 13 13 13
28 28 28 28 28 27 27 27 27 27 27 26 25 23 21 20 20 19 19 18 18 18 17 17 17 18 18 18 18 17 17 17 16 16 16 16 15 15 14 14 14 13 13 13 13 13 12 12 12
28 28 27 26 27 28 27 27 28 27 26 25 25 24 22 21 21 20 19 19 18 18 18 18 18 18 18 18 18 18 18 17 17 16 16 16 16 15 15 15 14 14 13 13 13 13 12 12 12
28 29 29 28 28 27 28 28 28 27 26 26 25 24 23 22 22 21 20 19 19 19 18 18 18 18 18 18 18 18 18 18 17 17 17 16 16 15 15 15 15 14 14 14 13 13 12 12 12
28 29 28 28 26 26 27 27 27 27 27 27 26 25 24 23 22 22 21 20 20 19 19 19 18 19 19 19 19 18 19 18 18 17 17 17 16 16 16 15 15 15 14 14 14 13 13 12 12
27 27 28 28 27 26 26 27 27 27 27 27 27 26 25 24 23 23 22 21 21 20 20 19 19 19 19 19 19 19 19 19 18 18 18 17 17 17 17 16 16 15 15 15 15 13 13 13 13
28 28 28 27 26 26 27 27 26 26 27 26 27 26 25 24 24 23 23 22 21 21 20 20 20 19 19 19 19 19 19 19 19 18 18 18 18 17 17 17 16 16 15 15 15 15 14 14 13
Wind_Speed
9 6 5 5 6 6 3 1 0 3 2 3 4 3 2 2 2 4 8 19 20 20 21 21 17 16 16 16 16 16 16 15 15 14 13 12 11 10 9 9 9 9 9 8 8 8 8 8 8
5 4 5 5 7 6 2 1 2 1 3 5 5 4 3 3 4 7 11 19 22 21 22 21 19 17 17 16 16 15 15 15 14 13 12 11 10 10 9 8 8 8 8 8 7 7 8 8 8
5 6 5 5 6 6 2 1 1 2 4 5 4 2 1 3 5 7 12 20 22 20 20 20 20 18 17 16 16 15 15 14 13 12 12 11 10 9 8 8 7 7 7 7 6 6 7 7 7
4 5 5 7 6 2 3 2 1 4 5 5 4 3 3 4 3 7 16 21 21 19 20 21 19 18 17 16 15 15 14 13 12 11 11 9 8 8 7 6 6 6 6 6 5 5 6 6 6
6 5 7 6 3 1 2 3 3 6 4 4 5 2 4 4 5 13 18 20 20 19 18 21 18 17 16 15 14 14 13 12 11 10 9 8 7 6 5 5 5 5 5 5 4 4 4 4 4
4 5 5 2 1 0 1 1 4 6 5 3 4 3 4 5 10 15 17 18 18 17 17 20 17 16 15 15 14 13 12 11 10 9 8 7 5 4 4 3 3 3 4 4 4 4 4 3 3
5 3 1 1 0 1 1 1 4 5 5 3 2 3 5 7 11 14 15 15 16 16 15 17 18 16 14 13 12 12 11 10 9 7 6 5 4 3 2 2 3 3 3 3 4 4 4 3 3
5 4 1 0 1 1 2 1 1 4 2 2 3 3 6 9 11 13 14 14 14 14 13 14 15 15 14 13 12 11 10 9 8 6 5 4 4 4 3 5 4 4 4 4 4 5 5 4 4
5 4 1 3 3 3 1 2 0 1 3 4 2 1 7 14 13 14 14 14 13 12 11 12 13 12 12 12 13 11 10 8 8 7 5 4 4 4 5 2 1 5 6 5 5 5 5 6 7
4 3 4 5 5 6 4 5 3 4 5 5 5 5 11 15 15 16 16 16 15 14 13 10 11 11 11 10 11 9 8 7 4 3 3 2 1 2 3 3 3 4 6 6 6 5 7 9 8
4 4 5 5 5 6 6 5 5 6 5 3 4 9 13 15 15 15 15 15 15 14 12 11 10 10 10 8 8 6 5 6 4 3 1 0 2 2 3 3 4 5 6 7 7 8 8 7 5
5 6 6 6 5 5 5 4 4 6 2 2 2 10 14 14 15 15 15 14 14 13 12 11 10 9 8 7 7 6 5 4 4 4 1 1 1 2 2 3 3 3 3 3 5 5 6 6 6
8 6 5 5 5 4 4 4 3 2 1 2 5 11 14 14 13 13 12 12 12 12 11 10 10 9 8 7 6 6 5 5 5 4 4 2 1 2 2 1 2 3 2 3 4 5 4 5 6
5 7 7 5 3 3 4 4 4 1 1 3 6 10 12 13 12 12 12 12 12 12 11 10 9 9 9 7 6 5 6 5 5 5 5 4 3 3 2 1 2 2 2 2 2 2 3 3 3
7 8 5 3 3 2 4 5 4 2 3 4 6 8 10 10 10 11 12 13 12 12 11 10 9 9 9 8 8 7 6 6 5 6 5 4 4 3 2 2 1 2 1 1 1 2 2 3 3
7 7 3 2 3 3 5 4 3 4 5 6 7 8 9 9 9 9 10 10 10 10 10 10 9 10 9 8 8 7 6 6 6 5 5 5 4 3 2 2 2 2 2 1 0 2 2 1 2
3 7 7 1 3 3 6 5 3 3 5 6 7 8 9 9 8 8 8 9 10 10 10 10 9 10 9 9 8 8 7 5 5 5 4 4 3 3 2 3 3 1 1 1 1 1 2 2 2
10 10 8 6 1 5 7 5 1 4 6 6 7 9 10 11 10 10 9 9 9 10 10 10 10 10 10 9 8 7 6 6 5 4 4 3 3 2 2 3 3 2 2 2 2 1 2 3 3
9 10 10 5 2 5 6 5 2 5 6 7 8 9 10 10 10 9 10 9 9 9 10 11 11 11 10 8 8 7 7 6 5 5 5 3 2 3 2 3 3 2 3 3 2 2 0 1 2
9 10 8 2 1 5 5 4 1 5 7 7 8 9 10 11 11 11 11 11 11 11 11 11 11 11 11 8 6 6 5 5 5 4 5 4 3 2 2 2 2 3 2 2 2 2 2 1 1
9 8 8 7 3 5 6 3 4 5 6 6 7 8 10 12 13 13 13 13 12 12 12 11 11 11 10 10 7 6 5 5 5 6 6 5 5 3 1 1 2 1 1 3 2 2 2 1 1
8 4 5 6 7 3 4 5 3 5 7 8 9 9 11 12 13 13 14 14 14 13 12 11 11 11 11 11 10 10 7 6 5 5 5 6 6 5 4 3 2 0 1 2 0 3 2 2 0
5 2 4 6 6 5 2 6 3 4 5 8 10 11 12 13 14 14 14 14 14 13 12 11 11 12 11 11 10 10 8 6 5 5 5 6 6 7 6 5 4 3 1 1 2 1 2 1 2
2 4 6 7 7 3 5 5 3 2 1 6 9 11 13 13 14 14 13 13 13 13 12 12 12 12 12 12 11 11 9 7 6 6 6 7 6 6 7 7 6 5 3 2 2 1 1 1 2
6 8 7 5 3 4 3 4 3 3 2 5 9 12 13 13 14 14 14 15 15 15 14 14 14 13 13 13 13 12 11 10 9 8 7 6 6 6 7 7 7 6 5 4 3 3 1 2 1
6 8 7 8 8 6 1 2 3 4 4 5 8 11 13 14 14 14 15 15 15 16 16 16 15 14 14 14 13 12 12 10 9 9 7 7 6 6 6 8 8 8 7 6 5 5 4 3 4
5 6 6 8 8 7 2 1 4 5 6 7 9 11 13 14 15 15 15 16 16 16 16 16 16 15 15 15 14 13 13 12 10 8 9 8 7 6 8 8 9 9 9 8 7 6 5 5 6
6 4 4 6 6 6 3 1 2 4 6 8 10 11 13 14 14 15 15 16 16 16 16 16 16 16 15 15 14 12 13 13 12 11 10 9 8 8 8 9 10 10 9 9 9 8 7 7 7
6 5 5 5 5 7 5 1 4 1 3 6 9 11 13 14 15 15 15 15 16 15 16 16 16 16 15 15 14 13 13 13 12 12 11 11 10 10 10 10 10 10 10 10 10 10 8 9 9
7 7 6 6 5 5 7 1 6 3 1 3 6 8 10 12 13 14 15 15 15 15 15 16 16 16 15 15 14 14 13 12 13 13 12 12 11 11 11 11 11 11 11 11 11 11 11 11 11
Wind_Direction
189 210 241 249 243 238 255 113 191 167 158 148 160 184 189 147 144 105 129 152 150 150 148 153 154 150 146 140 136 133 132 131 131 130 129 127 125 122 117 111 105 99 95 91 88 87 85 82 77
192 226 243 244 256 255 227 172 208 161 124 143 162 178 171 132 71 109 142 152 152 152 151 156 153 153 150 145 141 138 136 134 133 132 130 129 126 123 118 113 106 101 97 93 90 87 85 80 74
206 245 261 251 255 275 295 134 205 133 153 175 172 188 180 109 123 135 147 154 155 152 152 149 155 154 152 149 145 142 140 139 137 135 133 132 131 128 125 121 114 107 102 99 94 90 86 78 72
226 233 239 251 252 296 321 327 227 180 179 204 197 155 107 63 122 138 148 157 154 152 155 150 157 155 153 151 148 145 143 142 140 138 136 134 133 132 128 129 124 118 114 109 103 99 93 84 72
243 256 240 236 249 299 311 321 235 218 193 192 210 162 103 72 117 138 151 156 154 157 156 151 158 155 153 151 149 146 145 142 139 138 138 137 137 136 134 132 133 128 128 127 122 118 107 95 79
240 250 250 241 158 294 301 292 234 233 215 190 206 171 95 107 133 143 150 156 157 158 156 147 153 153 153 151 149 147 144 141 139 141 142 145 145 144 144 152 157 153 150 150 150 147 141 126 102
274 268 289 326 48 174 23 328 247 240 220 198 192 166 120 124 134 143 148 154 158 159 156 152 160 158 154 149 149 145 142 140 139 140 141 146 150 158 170 193 204 204 192 183 180 178 177 168 149
289 271 195 116 315 21 51 287 313 268 225 138 201 194 147 141 141 143 148 153 156 160 158 156 165 160 163 157 146 140 138 137 135 134 137 149 175 190 197 222 211 230 226 215 205 205 201 195 186
270 256 41 23 339 353 4 275 217 253 206 178 160 65 130 143 148 149 152 155 156 160 162 166 159 158 164 160 148 149 143 140 152 151 146 200 219 206 202 209 188 236 233 228 220 216 217 208 197
255 295 27 354 324 318 304 279 267 233 222 198 158 127 137 151 159 161 163 164 163 163 164 162 158 161 166 154 148 156 157 149 164 134 157 209 265 273 267 145 227 244 234 224 221 220 222 227 209
255 298 333 318 310 299 285 259 248 256 251 231 186 155 154 160 166 169 170 170 165 163 161 163 161 165 161 150 152 150 141 138 141 113 99 25 278 261 258 248 213 224 223 223 203 216 227 229 231
259 279 286 294 304 283 275 260 247 251 292 41 179 162 165 171 172 175 174 170 161 161 165 164 158 158 157 151 143 146 144 143 125 108 72 43 348 315 316 285 284 255 237 230 230 224 224 236 232
250 279 288 285 284 281 256 246 257 255 249 194 169 170 175 176 177 177 172 165 161 164 165 161 158 152 147 143 148 140 136 130 114 98 74 31 22 8 347 336 322 288 274 230 227 231 218 223 224
290 285 278 274 270 244 247 234 231 214 175 182 172 174 177 175 177 172 170 168 170 169 165 159 159 156 152 148 140 136 132 123 112 98 78 49 48 38 360 354 337 319 306 318 273 239 222 225 224
272 271 252 217 230 224 249 233 220 168 167 170 165 170 170 172 176 176 174 172 172 167 164 160 161 158 157 149 146 142 137 129 114 100 89 68 58 47 9 27 338 360 339 291 255 237 229 223 215
245 258 294 139 219 203 251 290 117 162 176 173 169 166 161 167 180 177 173 167 164 165 163 163 166 160 156 147 147 142 137 127 118 111 99 75 60 42 7 27 40 2 317 291 241 264 242 238 244
247 327 343 17 209 234 253 301 120 169 187 179 175 174 167 168 174 169 170 161 161 165 164 166 164 161 157 150 148 139 137 133 130 121 103 92 74 51 33 43 39 340 354 336 313 16 298 262 277
339 331 331 336 271 255 266 292 165 183 199 188 178 176 174 175 176 172 169 160 156 161 165 165 164 163 159 154 150 147 148 151 148 135 115 117 97 66 32 79 45 7 42 32 29 11 344 303 287
311 312 318 341 335 275 282 291 241 185 195 191 187 185 181 177 171 170 169 163 156 161 168 171 171 166 165 162 165 164 165 166 163 158 145 147 116 100 30 56 72 13 50 20 4 332 192 290 311
295 302 320 342 294 282 295 283 196 189 198 199 195 192 185 174 173 176 176 174 171 171 171 175 175 172 174 167 166 169 164 176 171 169 162 174 161 157 130 52 68 60 76 60 33 359 330 24 336
304 311 328 327 295 229 286 217 175 176 188 194 196 191 185 179 180 181 182 182 180 178 177 179 178 176 179 169 170 163 168 184 178 188 187 189 188 183 148 134 52 56 23 76 37 4 352 3 61
313 348 309 298 293 334 322 330 131 177 188 192 191 187 186 182 180 184 190 189 186 182 179 178 180 181 179 180 187 188 194 194 191 198 186 186 198 198 188 182 163 171 59 89 102 55 360 313 351
327 322 283 281 287 293 321 319 80 166 197 191 188 188 185 184 185 188 193 191 187 181 180 182 184 185 185 193 195 201 209 207 194 195 183 202 196 203 202 197 190 194 188 89 43 63 352 344 339
198 239 239 242 259 312 9 319 32 75 192 178 179 183 182 181 184 188 191 189 186 183 185 185 184 188 190 196 201 210 214 215 210 208 201 208 201 203 202 203 202 208 200 173 183 180 168 4 5
228 273 285 284 283 1 44 307 28 70 136 174 175 176 179 181 183 186 188 188 187 188 189 189 188 192 194 199 205 210 215 215 216 222 216 223 217 206 196 204 203 209 204 204 203 210 240 210 229
250 282 298 312 323 332 154 344 66 112 137 161 169 171 177 182 184 186 187 186 188 190 192 193 193 196 198 203 208 211 214 219 224 219 231 219 228 221 192 200 205 209 207 210 208 225 215 221 237
255 261 299 286 287 293 340 59 128 146 162 166 170 174 180 184 185 186 186 189 192 194 195 197 196 200 204 207 208 212 214 223 228 217 219 225 218 214 200 205 208 209 209 214 214 232 229 226 237
276 268 255 277 303 303 301 283 83 158 175 177 179 182 183 185 187 187 188 192 194 196 197 200 201 205 208 210 212 214 215 217 220 222 221 221 214 211 207 210 212 211 210 211 220 229 223 231 237
198 216 246 269 294 298 304 23 69 97 195 195 190 188 187 188 190 190 193 194 195 197 198 201 204 208 211 215 216 221 219 217 217 218 217 214 215 207 209 212 214 214 214 214 217 233 229 231 237
235 236 230 265 275 269 290 0 94 67 114 201 196 189 191 193 194 194 194 195 198 201 203 205 209 212 215 216 216 219 221 220 219 219 216 213 213 212 212 214 216 218 219 217 219 227 230 231 236
Height
1527 1528 1529 1530 1523 1511 1510 1509 1508 1510 1512 1515 1517 1517 1516 1517 1520 1528 1531 1532 1537 1541 1544 1547 1550 1553 1556 1558 1559 1561 1562 1563 1564 1565 1565 1566 1567 1568 1568 1569 1569 1570 1570 1570 1570 1571 1571 1571 1571
1529 1529 1531 1526 1515 1512 1511 1508 1509 1510 1514 1518 1519 1519 1519 1521 1525 1527 1529 1532 1537 1542 1545 1548 1551 1554 1557 1559 1561 1562 1563 1564 1565 1566 1567 1567 1568 1569 1569 1570 1571 1571 1571 1572 1572 1572 1572 1572 1572
1530 1530 1529 1517 1510 1510 1509 1507 1509 1513 1517 1518 1519 1520 1520 1523 1526 1527 1529 1533 1538 1543 1547 1549 1552 1555 1558 1560 1562 1563 1564 1565 1566 1567 1568 1568 1569 1570 1570 1571 1572 1572 1572 1573 1573 1573 1574 1574 1574
1532 1531 1526 1515 1510 1508 1509 1509 1511 1514 1518 1519 1519 1520 1523 1526 1527 1528 1530 1534 1540 1544 1548 1550 1553 1556 1559 1561 1563 1564 1565 1566 1567 1568 1569 1569 1570 1571 1571 1572 1573 1573 1573 1574 1574 1575 1575 1575 1576
1531 1526 1516 1511 1510 1509 1510 1512 1514 1514 1515 1518 1519 1520 1523 1527 1527 1528 1531 1537 1541 1546 1550 1552 1554 1557 1560 1562 1563 1565 1566 1567 1568 1569 1570 1570 1571 1572 1572 1573 1574 1574 1574 1575 1575 1576 1576 1577 1577
1529 1521 1513 1512 1511 1511 1511 1514 1514 1514 1516 1519 1520 1521 1525 1528 1529 1531 1534 1539 1543 1547 1551 1553 1555 1558 1561 1563 1564 1566 1567 1568 1569 1570 1571 1571 1572 1573 1573 1574 1574 1575 1575 1575 1576 1576 1577 1578 1578
1527 1517 1514 1512 1513 1511 1512 1514 1514 1514 1515 1519 1521 1522 1526 1529 1531 1533 1537 1541 1545 1549 1552 1554 1557 1558 1561 1563 1565 1566 1568 1569 1570 1571 1571 1572 1572 1573 1573 1574 1574 1575 1576 1576 1576 1577 1577 1578 1579
1528 1518 1513 1512 1514 1511 1512 1515 1516 1517 1517 1522 1523 1522 1525 1530 1531 1534 1538 1542 1546 1549 1553 1555 1558 1560 1562 1564 1565 1567 1568 1569 1570 1571 1572 1572 1573 1573 1574 1574 1575 1575 1575 1576 1576 1577 1577 1578 1579
1529 1519 1514 1512 1514 1511 1513 1515 1517 1519 1520 1522 1523 1524 1526 1528 1531 1534 1538 1542 1545 1549 1552 1556 1558 1560 1563 1565 1565 1567 1568 1570 1571 1572 1572 1573 1574 1575 1574 1574 1574 1575 1575 1576 1576 1576 1577 1577 1578
1526 1516 1514 1514 1514 1513 1514 1516 1516 1517 1518 1520 1523 1525 1527 1528 1531 1534 1537 1541 1545 1548 1552 1555 1558 1560 1563 1565 1566 1568 1570 1570 1572 1572 1573 1573 1573 1574 1574 1573 1574 1574 1574 1574 1575 1575 1576 1577 1579
1522 1516 1514 1514 1515 1515 1514 1515 1516 1516 1515 1519 1522 1525 1527 1529 1531 1534 1538 1541 1544 1548 1551 1554 1557 1559 1563 1564 1566 1568 1570 1570 1571 1571 1572 1572 1573 1573 1574 1574 1574 1573 1573 1574 1574 1575 1576 1577 1578
1520 1517 1517 1515 1515 1515 1514 1514 1515 1516 1517 1521 1522 1524 1526 1528 1531 1534 1537 1541 1544 1547 1551 1554 1556 1558 1561 1564 1566 1568 1570 1571 1572 1571 1571 1572 1572 1572 1572 1572 1573 1573 1573 1573 1573 1574 1575 1575 1576
1518 1515 1515 1515 1515 1514 1515 1514 1516 1516 1519 1520 1521 1523 1525 1527 1530 1533 1537 1540 1543 1547 1550 1553 1555 1558 1561 1563 1566 1568 1569 1571 1571 1571 1571 1571 1572 1571 1571 1571 1570 1572 1572 1572 1572 1572 1573 1574 1574
1515 1514 1513 1513 1513 1514 1514 1514 1515 1516 1518 1519 1520 1522 1524 1526 1529 1533 1536 1539 1542 1546 1549 1552 1555 1558 1561 1563 1566 1567 1569 1570 1571 1571 1570 1570 1571 1570 1571 1571 1570 1571 1571 1571 1571 1572 1572 1573 1573
1515 1511 1508 1510 1511 1512 1513 1510 1512 1516 1518 1519 1520 1522 1524 1526 1529 1532 1535 1539 1542 1546 1549 1551 1554 1558 1561 1563 1566 1568 1569 1570 1571 1570 1570 1570 1571 1570 1570 1570 1570 1570 1570 1569 1570 1571 1571 1572 1572
1509 1506 1504 1505 1509 1511 1513 1509 1512 1515 1517 1518 1520 1522 1523 1526 1528 1531 1535 1538 1542 1545 1548 1551 1555 1558 1561 1563 1565 1568 1569 1570 1571 1571 1571 1570 1570 1569 1570 1570 1570 1569 1570 1570 1570 1571 1571 1571 1572
1501 1503 1503 1504 1507 1507 1508 1506 1510 1515 1516 1517 1519 1521 1523 1525 1528 1530 1533 1537 1541 1544 1547 1551 1554 1557 1561 1563 1565 1567 1568 1569 1571 1571 1572 1571 1570 1570 1570 1570 1569 1569 1570 1570 1570 1570 1571 1571 1571
1508 1504 1501 1502 1502 1505 1504 1504 1508 1513 1514 1516 1518 1520 1522 1525 1527 1530 1533 1537 1540 1543 1547 1550 1553 1557 1560 1562 1564 1566 1568 1569 1571 1571 1571 1571 1571 1570 1570 1570 1568 1570 1570 1569 1569 1569 1568 1569 1570
1504 1504 1502 1500 1502 1503 1502 1503 1505 1510 1512 1514 1517 1519 1521 1524 1527 1529 1532 1536 1539 1542 1546 1549 1553 1556 1559 1561 1564 1566 1568 1569 1570 1571 1571 1571 1571 1570 1570 1571 1568 1569 1569 1568 1569 1569 1569 1569 1569
1501 1502 1498 1498 1502 1502 1500 1501 1503 1508 1510 1512 1514 1517 1520 1522 1525 1528 1531 1534 1538 1541 1544 1548 1552 1555 1558 1561 1563 1565 1568 1569 1570 1571 1570 1571 1570 1570 1570 1569 1570 1569 1568 1568 1568 1567 1569 1569 1568
1497 1499 1498 1499 1499 1500 1500 1499 1502 1505 1509 1511 1513 1515 1517 1520 1523 1526 1529 1533 1537 1540 1543 1547 1550 1554 1557 1560 1562 1565 1566 1568 1569 1570 1570 1570 1570 1570 1570 1569 1569 1568 1570 1569 1567 1567 1568 1569 1569
1497 1495 1498 1498 1498 1495 1500 1501 1497 1499 1504 1507 1510 1513 1516 1519 1522 1525 1528 1532 1535 1538 1542 1546 1549 1552 1555 1558 1562 1564 1566 1568 1569 1570 1570 1569 1569 1569 1569 1569 1568 1568 1569 1567 1568 1567 1567 1567 1569
1497 1497 1497 1496 1496 1496 1495 1498 1494 1495 1498 1501 1506 1510 1513 1517 1520 1523 1526 1530 1534 1537 1540 1544 1547 1550 1554 1557 1560 1562 1565 1567 1568 1568 1568 1568 1568 1568 1568 1568 1568 1567 1568 1567 1566 1566 1566 1567 1568
1498 1498 1496 1494 1490 1501 1498 1500 1498 1490 1493 1496 1501 1507 1511 1515 1518 1522 1525 1529 1532 1536 1539 1542 1545 1548 1552 1555 1558 1560 1563 1565 1566 1566 1567 1567 1567 1567 1567 1567 1566 1567 1567 1566 1566 1565 1566 1566 1566
1497 1498 1501 1501 1500 1500 1495 1497 1496 1489 1491 1493 1498 1504 1509 1513 1516 1520 1522 1525 1530 1534 1537 1541 1543 1546 1550 1553 1555 1558 1560 1562 1563 1565 1565 1566 1567 1566 1565 1565 1565 1566 1565 1565 1565 1564 1565 1565 1565
1493 1494 1507 1515 1508 1496 1492 1496 1489 1489 1492 1495 1498 1502 1507 1511 1514 1517 1520 1523 1527 1531 1535 1539 1541 1544 1547 1550 1553 1555 1557 1559 1561 1562 1563 1563 1564 1565 1564 1563 1563 1563 1563 1564 1563 1565 1564 1564 1564
1492 1491 1485 1495 1496 1501 1492 1489 1486 1489 1491 1494 1497 1501 1505 1508 1512 1515 1519 1522 1526 1529 1533 1536 1539 1541 1544 1547 1550 1552 1554 1556 1558 1559 1559 1561 1560 1561 1560 1560 1561 1561 1561 1561 1562 1563 1562 1562 1562
1489 1487 1492 1495 1509 1509 1498 1492 1490 1488 1489 1492 1495 1499 1502 1506 1510 1513 1517 1520 1524 1527 1530 1533 1536 1538 1541 1544 1547 1549 1550 1552 1554 1555 1556 1557 1557 1557 1557 1558 1558 1558 1559 1559 1559 1560 1560 1560 1560
1493 1493 1491 1490 1495 1506 1508 1497 1485 1487 1488 1490 1492 1496 1500 1504 1507 1511 1515 1518 1521 1525 1528 1530 1533 1536 1538 1541 1543 1545 1547 1548 1549 1551 1552 1553 1554 1554 1554 1555 1555 1555 1556 1556 1556 1557 1558 1557 1557
1483 1485 1489 1497 1499 1497 1498 1495 1485 1487 1489 1490 1491 1495 1498 1502 1505 1509 1512 1516 1519 1522 1525 1528 1530 1533 1535 1537 1539 1541 1542 1544 1545 1546 1547 1548 1549 1550 1551 1551 1551 1552 1553 1553 1553 1553 1554 1554 1554